FALCON 9 DEB (44296 NORAD) Tracking and Keplerian Element Data

This shows tracking and keplerian element data for the satellite.

Feedback or suggestion? Click here.




ElementValue
Catalog44296
NameFALCON 9 DEB
Epoch Orbit583
Epoch Day173.90811828
Epoch Year2019
RAAN33.7826
Inclination53.0038
Eccentricity0.0009942
Argument of Perigee15.9998
Mean Anonmoly344.1318
Mean Motion15.42372042
Decay Rate8.72E-06
L11 44296U 19029BP 19173.90811828 .00000872 00000-0 29420-4 0 9992
L22 44296 53.0038 33.7826 0009942 15.9998 344.1318 15.42372042 5830

Live tracking and technical data element details for FALCON 9 DEB (NORAD 44296). FALCON 9 DEB can be tracked NOW for your location showing map with azimuth and elevation plus other details from your city location.

Track the satellite on the map from your city or location and see movement details for azimuth, elevation, latitude, longitude, range, height, and movement on the map or in text.







IsCatalogInMostPopularTable: catalog: 44296, numindb: 33
Update: records affected: 1



GetName: 44296 FALCON 9 DEB

Hit Count: updated at: Fri, 19 Jul 2019 07:44:47 GMT